Regional Weather Roundup
Issued by NWS

Home | Current Version | Previous Version | Graphics & Text | Print | Product List | Glossary Off
Versions: 1 2 3 4 5 6 7 8 9 10 11 12 13 14 15 16 17 18 19 20 21 22 23 24 25 26 27 28 29 30 31 32 33 34 35 36 37 38 39 40 41 42 43 44 45 46 47 48 49 50

857
ASUS43 KMKX 181020
RWRWI

WISCONSIN REGIONAL WEATHER ROUNDUP
NATIONAL WEATHER SERVICE MILWAUKEE/SULLIVAN WI
400 AM CST MON DEC 18 2017

NOTE: "FAIR" INDICATES FEW OR NO CLOUDS BELOW 12,000 FEET WITH NO
SIGNIFICANT WEATHER AND/OR OBSTRUCTIONS TO VISIBILITY.

WIZ001-002-006>008-014>016-023>028-181100-
NORTHWEST WISCONSIN

CITY           SKY/WX    TMP DP  RH WIND       PRES   REMARKS
SUPERIOR ARPT  CLOUDY    25  22  89 SW5       29.82F WCI  19
ASHLAND        CLOUDY    27  23  85 SW9       29.83F WCI  18
HAYWARD        CLOUDY    26  24  92 S8        29.82F FOG     WCI  18
SIREN          CLOUDY    25  24  94 S3        29.84F FOG
CUMBERLAND     FOG       25  23  93 S6        29.84F VSB 1/4 WCI  18
RICE LAKE      CLOUDY    26  26  99 CALM      29.86F FOG
CHETEK         CLOUDY    25  25  98 S3        29.86F
LADYSMITH      FOG       27  26  96 SW7       29.86F VSB 3/4 WCI  19
EAU CLAIRE     CLOUDY    27  26  96 SW5       29.87F FOG     WCI  22
MENOMONIE      CLOUDY    28  27  99 S3        29.88F FOG
NEW RICHMOND   FOG       26  25  99 S6        29.86F VSB 1   WCI  19
OSCEOLA        CLOUDY    26  26 100 S7        29.89F FOG     WCI  18
$$

WIZ003>005-009-010-017-018-181100-
NORTH CENTRAL WISCONSIN

CITY           SKY/WX    TMP DP  RH WIND       PRES   REMARKS
MANITOWISH WTR CLOUDY    24  24 100 S5        29.79F FOG     WCI  18
ARBOR VITAE    CLOUDY    27  26  96 SW3       29.80F FOG
WOODRUFF       CLOUDY    27  26  96 SW3       29.80F FOG
RHINELANDER    CLOUDY    25  25 100 SW7       29.81F FOG     WCI  17
EAGLE RIVER    CLOUDY    25  25 100 W6        29.80F FOG     WCI  18
LAND O LAKES   CLOUDY    25  25  98 CALM      29.81F FOG
PHILLIPS       CLOUDY    25  25 100 SW5       29.81F FOG     WCI  19
TOMAHAWK       CLOUDY    25  24  96 CALM      29.84S FOG
MEDFORD        FOG       25  24  96 SW3       29.83F VSB 1/4
MERRILL        CLOUDY    26  26 100 W5        29.85F FOG     WCI  20
$$

WIZ029-030-035-036-043>047-181100-
CENTRAL WISCONSIN

CITY           SKY/WX    TMP DP  RH WIND       PRES   REMARKS
WAUSAU         CLOUDY    26  26 100 W6        29.85S FOG     WCI  19
MOSINEE        FOG       28  28 100 W5        29.87S VSB 1   WCI  23
MARSHFIELD     FOG       27  27 100 W5        29.85F VSB 3/4 WCI  22
STEVENS POINT  CLOUDY    27  27 100 W3        29.88S FOG
WAUPACA        CLOUDY    31  29  92 CALM      29.89S FOG
WAUTOMA        CLOUDY    29  28  96 SW3       29.89F FOG
WISC RAPIDS    CLOUDY    28  27  96 W3        29.89F FOG
CAMP DOUGLAS   CLOUDY    30  30 100 W6        29.89S WCI  24
$$

WIZ011>013-019>022-031-037>040-048>050-181100-
NORTHEAST WISCONSIN

CITY           SKY/WX    TMP DP  RH WIND       PRES   REMARKS
ANTIGO         FOG       24  24 100 W6        29.84S VSB 3/4 WCI  17
SHAWANO        CLOUDY    30  28  94 W8        29.87F FOG     WCI  22
OCONTO         CLOUDY    28  27  94 W6        29.88F WCI  22
STURGEON BAY   CLOUDY    28  27  96 W5        29.88F FOG     WCI  23
GREEN BAY      CLOUDY    30  26  85 W9        29.89S FOG     WCI  22
MANITOWOC      CLOUDY    30  28  92 W5        29.90F FOG     WCI  25
APPLETON       CLOUDY    30  30 100 W7        29.86F FOG     WCI  23
CLINTONVILLE   CLOUDY    28  28 100 W6        29.88F FOG     WCI  22
OSHKOSH        CLOUDY    30  29  96 S3        29.89S FOG
$$

WIZ032>034-041-042-053>061-181100-
SOUTHWEST WISCONSIN

CITY           SKY/WX    TMP DP  RH WIND       PRES   REMARKS
LA CROSSE      CLOUDY    31  29  92 W5        29.91S FOG     WCI  26
SPARTA         CLOUDY    28  28  99 CALM      29.91S FOG
VIROQUA        CLOUDY    30  30 100 CALM      29.88R
BOSCOBEL       CLOUDY    33  29  85 S5        29.92S FOG     WCI  29
PRAIRIE DU CHI CLOUDY    32  29  88 CALM      29.92S FOG
PLATTEVILLE    CLOUDY    34  34 100 W8        29.91F VSB 1/2 WCI  27
$$

WIZ056-057-062-063-064-067-068-181100-
SOUTH CENTRAL WISCONSIN

CITY           SKY/WX    TMP DP  RH WIND       PRES   REMARKS
REEDSBURG      CLOUDY    31  31  99 CALM      29.89F FOG
BARABOO/DELLS  CLOUDY    30  29  96 CALM      29.89S FOG
LONE ROCK      CLOUDY    32  31  96 CALM      29.91S FOG
MINERAL POINT  CLOUDY    34  34 100 W9        29.89F FOG     WCI  26
MADISON        FOG       32  32 100 CALM      29.91S VSB 1
MIDDLETON      CLOUDY    34  34 100 W3        29.90S
WATERTOWN      CLOUDY    32  32 100 CALM      29.90R FOG
MONROE         FOG       34  34 100 SW7       29.90S VSB 1/4 WCI  28
JANESVILLE     FOG       36  36 100 SW5       29.90F VSB 1/2 WCI  32
$$

WIZ051-052-058>065-066-070>072-181100-
SOUTHEAST WISCONSIN

CITY           SKY/WX    TMP DP  RH WIND       PRES   REMARKS
MILWAUKEE      LGT RAIN  35  34  96 S3        29.90S FOG
WAUKESHA       RAIN      32  32 100 SW3       29.90S
MILWAUKEE/TIMM CLOUDY    32  30  93 CALM      29.90S FOG
RACINE         CLOUDY    35  34  96 CALM      29.92F FOG
BURLINGTON     FOG       46  46 100 CALM      29.91R VSB 1
KENOSHA        FOG       37  34  89 CALM      29.90F VSB 1/2
FOND DU LAC    FOG       31  28  89 S3        29.89F VSB 1/4
SHEBOYGAN      CLOUDY    30  30 100 CALM      29.89F FOG
WEST BEND      LGT SNOW  32  32 100 CALM      29.90R
JUNEAU         FOG       31  30  99 CALM      29.90F VSB 1/2
$$

LSZ147-162-181100-
LAKE SUPERIOR

STATION/POSITION TIME  TEMP    WIND        PRES    WAVE
                       AIR SEA DIR/SP/G            HT/PER
                 (UTC) (F)     (DEG/KT/KT) (MB)    (FT/S)
DEVILS ISLAND    1000   27     210/ 15/ 17 1010.1F
SAXON HARBOR     0940   28                 1010.2F
$$

LMZ867-665-643>646-181100-
LAKE MICHIGAN

STATION/POSITION TIME  TEMP    WIND        PRES    WAVE
                       AIR SEA DIR/SP/G            HT/PER
                 (UTC) (F)     (DEG/KT/KT) (MB)    (FT/S)
NORTHPORT PIER   0940   30        CALM     1011.5F
KEWAUNEE LAKESHO 0954   30     280/  4/  6 1011.3F
SHEBOYGAN LAKESH 1000   31     240/  3/  3 1013.0F
PORT WASHINGTON  0940   33      CALM  /  2 1013.9S
MILWAUKEE LAKESH 1000   35     180/  5/  6   N/A
KENOSHA   LAKESH 1000   36     190/  2/  3 1012.9
$$

TC  - TEMPERATURE IN CELSIUS
VSB - VISIBILITY IN STATUTE MILES
WCI - WIND CHILL INDEX
HX  - HEAT INDEX





USA.gov is the U.S. government's official web portal to all federal, state and local government web resources and services.